Year,Month,Day,Hour,Minute,Value (Times are PST for temperature in C)
2014,09,22,00,00,16.80
2014,09,22,00,01,16.80
2014,09,22,00,02,16.80
2014,09,22,00,03,16.80
2014,09,22,00,04,16.70
2014,09,22,00,05,16.70
2014,09,22,00,06,16.60
2014,09,22,00,07,16.60
2014,09,22,00,08,16.60
2014,09,22,00,09,16.60
2014,09,22,00,10,16.50
2014,09,22,00,11,16.50
2014,09,22,00,12,16.50
2014,09,22,00,13,16.50
2014,09,22,00,14,16.40
2014,09,22,00,15,16.40
2014,09,22,00,16,16.40
2014,09,22,00,17,16.40
2014,09,22,00,18,16.40
2014,09,22,00,19,16.40
2014,09,22,00,20,16.40
2014,09,22,00,21,16.40
2014,09,22,00,22,16.40
2014,09,22,00,23,16.40
2014,09,22,00,24,16.40
2014,09,22,00,25,16.30
2014,09,22,00,26,16.30
2014,09,22,00,27,16.30
2014,09,22,00,28,16.20
2014,09,22,00,29,16.20
2014,09,22,00,30,16.10
2014,09,22,00,31,16.10
2014,09,22,00,32,16.10
2014,09,22,00,33,16.00
2014,09,22,00,34,16.00
2014,09,22,00,35,15.90
2014,09,22,00,36,15.90
2014,09,22,00,37,15.90
2014,09,22,00,38,15.90
2014,09,22,00,39,15.90
2014,09,22,00,40,15.90
2014,09,22,00,41,15.90
2014,09,22,00,42,15.80
2014,09,22,00,43,15.80
2014,09,22,00,44,15.80
2014,09,22,00,45,15.80
2014,09,22,00,46,15.80
2014,09,22,00,47,15.70
2014,09,22,00,48,15.70
2014,09,22,00,49,15.70
2014,09,22,00,50,15.70
2014,09,22,00,51,15.70
2014,09,22,00,52,15.70
2014,09,22,00,53,15.80
2014,09,22,00,54,15.80
2014,09,22,00,55,15.80
2014,09,22,00,56,15.80
2014,09,22,00,57,15.90
2014,09,22,00,58,15.90
2014,09,22,00,59,15.90
2014,09,22,01,00,15.90
2014,09,22,01,01,15.90
2014,09,22,01,02,15.90
2014,09,22,01,03,15.90
2014,09,22,01,04,16.00
2014,09,22,01,05,16.10
2014,09,22,01,06,16.10
2014,09,22,01,07,16.10
2014,09,22,01,08,16.10
2014,09,22,01,09,16.00
2014,09,22,01,10,16.00
2014,09,22,01,11,16.00
2014,09,22,01,12,16.00
2014,09,22,01,13,16.00
2014,09,22,01,14,16.00
2014,09,22,01,15,16.00
2014,09,22,01,16,16.00
2014,09,22,01,17,16.00
2014,09,22,01,18,16.00
2014,09,22,01,19,16.00
2014,09,22,01,20,16.00
2014,09,22,01,21,16.00
2014,09,22,01,22,16.00
2014,09,22,01,23,16.00
2014,09,22,01,24,16.00
2014,09,22,01,25,16.00
2014,09,22,01,26,16.00
2014,09,22,01,27,15.90
2014,09,22,01,28,15.90
2014,09,22,01,29,15.80
2014,09,22,01,30,15.80
2014,09,22,01,31,15.80
2014,09,22,01,32,15.80
2014,09,22,01,33,15.70
2014,09,22,01,34,15.70
2014,09,22,01,35,15.70
2014,09,22,01,36,15.60
2014,09,22,01,37,15.60
2014,09,22,01,38,15.60
2014,09,22,01,39,15.50
2014,09,22,01,40,15.50
2014,09,22,01,41,15.40
2014,09,22,01,42,15.40
2014,09,22,01,43,15.40
2014,09,22,01,44,15.40
2014,09,22,01,45,15.30
2014,09,22,01,46,15.30
2014,09,22,01,47,15.30
2014,09,22,01,48,15.30
2014,09,22,01,49,15.20
2014,09,22,01,50,15.20
2014,09,22,01,51,15.10
2014,09,22,01,52,15.10
2014,09,22,01,53,15.10
2014,09,22,01,54,15.10
2014,09,22,01,55,15.00
2014,09,22,01,56,15.00
2014,09,22,01,57,15.00
2014,09,22,01,58,14.90
2014,09,22,01,59,14.90
2014,09,22,02,00,14.90
2014,09,22,02,01,14.90
2014,09,22,02,02,14.90
2014,09,22,02,03,14.90
2014,09,22,02,04,14.90
2014,09,22,02,05,14.90
2014,09,22,02,06,14.90
2014,09,22,02,07,14.90
2014,09,22,02,08,14.90
2014,09,22,02,09,14.90
2014,09,22,02,10,14.80
2014,09,22,02,11,14.80
2014,09,22,02,12,14.80
2014,09,22,02,13,14.80
2014,09,22,02,14,14.70
2014,09,22,02,15,14.70
2014,09,22,02,16,14.70
2014,09,22,02,17,14.70
2014,09,22,02,18,14.70
2014,09,22,02,19,14.70
2014,09,22,02,20,14.60
2014,09,22,02,21,14.60
2014,09,22,02,22,14.70
2014,09,22,02,23,14.70
2014,09,22,02,24,14.70
2014,09,22,02,25,14.70
2014,09,22,02,26,14.70
2014,09,22,02,27,14.70
2014,09,22,02,28,14.70
2014,09,22,02,29,14.80
2014,09,22,02,30,14.80
2014,09,22,02,31,14.80
2014,09,22,02,32,14.90
2014,09,22,02,33,14.90
2014,09,22,02,34,14.90
2014,09,22,02,35,14.90
2014,09,22,02,36,14.90
2014,09,22,02,37,14.90
2014,09,22,02,38,15.00
2014,09,22,02,39,15.00
2014,09,22,02,40,15.00
2014,09,22,02,41,14.90
2014,09,22,02,42,14.90
2014,09,22,02,43,14.90
2014,09,22,02,44,14.90
2014,09,22,02,45,14.90
2014,09,22,02,46,14.90
2014,09,22,02,47,14.90
2014,09,22,02,48,14.90
2014,09,22,02,49,14.90
2014,09,22,02,50,14.90
2014,09,22,02,51,14.90
2014,09,22,02,52,14.90
2014,09,22,02,53,14.90
2014,09,22,02,54,14.90
2014,09,22,02,55,14.90
2014,09,22,02,56,14.90
2014,09,22,02,57,14.90
2014,09,22,02,58,14.80
2014,09,22,02,59,14.80
2014,09,22,03,00,14.90
2014,09,22,03,01,14.90
2014,09,22,03,02,14.90
2014,09,22,03,03,14.90
2014,09,22,03,04,14.90
2014,09,22,03,05,14.90
2014,09,22,03,06,14.80
2014,09,22,03,07,14.80
2014,09,22,03,08,14.80
2014,09,22,03,09,14.80
2014,09,22,03,10,14.80
2014,09,22,03,11,14.80
2014,09,22,03,12,14.80
2014,09,22,03,13,14.80
2014,09,22,03,14,14.70
2014,09,22,03,15,14.70
2014,09,22,03,16,14.70
2014,09,22,03,17,14.70
2014,09,22,03,18,14.70
2014,09,22,03,19,14.70
2014,09,22,03,20,14.70
2014,09,22,03,21,14.60
2014,09,22,03,22,14.60
2014,09,22,03,23,14.60
2014,09,22,03,24,14.60
2014,09,22,03,25,14.60
2014,09,22,03,26,14.60
2014,09,22,03,27,14.60
2014,09,22,03,28,14.60
2014,09,22,03,29,14.60
2014,09,22,03,30,14.60
2014,09,22,03,31,14.60
2014,09,22,03,32,14.60
2014,09,22,03,33,14.60
2014,09,22,03,34,14.60
2014,09,22,03,35,14.60
2014,09,22,03,36,14.60
2014,09,22,03,37,14.60
2014,09,22,03,38,14.60
2014,09,22,03,39,14.60
2014,09,22,03,40,14.60
2014,09,22,03,41,14.60
2014,09,22,03,42,14.60
2014,09,22,03,43,14.60
2014,09,22,03,44,14.50
2014,09,22,03,45,14.50
2014,09,22,03,46,14.40
2014,09,22,03,47,14.40
2014,09,22,03,48,14.40
2014,09,22,03,49,14.30
2014,09,22,03,50,14.30
2014,09,22,03,51,14.30
2014,09,22,03,52,14.30
2014,09,22,03,53,14.30
2014,09,22,03,54,14.30
2014,09,22,03,55,14.30
2014,09,22,03,56,14.30
2014,09,22,03,57,14.20
2014,09,22,03,58,14.20
2014,09,22,03,59,14.20
2014,09,22,04,00,14.20
2014,09,22,04,01,14.10
2014,09,22,04,02,14.10
2014,09,22,04,03,14.10
2014,09,22,04,04,14.20
2014,09,22,04,05,14.20
2014,09,22,04,06,14.20
2014,09,22,04,07,14.20
2014,09,22,04,08,14.20
2014,09,22,04,09,14.20
2014,09,22,04,10,14.20
2014,09,22,04,11,14.20
2014,09,22,04,12,14.20
2014,09,22,04,13,14.20
2014,09,22,04,14,14.20
2014,09,22,04,15,14.10
2014,09,22,04,16,14.10
2014,09,22,04,17,14.10
2014,09,22,04,18,14.10
2014,09,22,04,19,14.10
2014,09,22,04,20,14.10
2014,09,22,04,21,14.10
2014,09,22,04,22,14.10
2014,09,22,04,23,14.10
2014,09,22,04,24,14.10
2014,09,22,04,25,14.10
2014,09,22,04,26,14.10
2014,09,22,04,27,14.10
2014,09,22,04,28,14.10
2014,09,22,04,29,14.10
2014,09,22,04,30,14.20
2014,09,22,04,31,14.20
2014,09,22,04,32,14.20
2014,09,22,04,33,14.30
2014,09,22,04,34,14.30
2014,09,22,04,35,14.30
2014,09,22,04,36,14.40
2014,09,22,04,37,14.40
2014,09,22,04,38,14.40
2014,09,22,04,39,14.40
2014,09,22,04,40,14.50
2014,09,22,04,41,14.50
2014,09,22,04,42,14.50
2014,09,22,04,43,14.40
2014,09,22,04,44,14.40
2014,09,22,04,45,14.40
2014,09,22,04,46,14.40
2014,09,22,04,47,14.50
2014,09,22,04,48,14.50
2014,09,22,04,49,14.50
2014,09,22,04,50,14.60
2014,09,22,04,51,14.60
2014,09,22,04,52,14.70
2014,09,22,04,53,14.70
2014,09,22,04,54,14.70
2014,09,22,04,55,14.70
2014,09,22,04,56,14.70
2014,09,22,04,57,14.80
2014,09,22,04,58,14.90
2014,09,22,04,59,15.30
2014,09,22,05,00,15.70
2014,09,22,05,01,16.00
2014,09,22,05,02,16.20
2014,09,22,05,03,16.40
2014,09,22,05,04,16.40
2014,09,22,05,05,16.40
2014,09,22,05,06,16.40
2014,09,22,05,07,16.50
2014,09,22,05,08,16.60
2014,09,22,05,09,16.60
2014,09,22,05,10,16.70
2014,09,22,05,11,16.70
2014,09,22,05,12,16.70
2014,09,22,05,13,16.70
2014,09,22,05,14,16.70
2014,09,22,05,15,16.70
2014,09,22,05,16,16.70
2014,09,22,05,17,16.70
2014,09,22,05,18,16.80
2014,09,22,05,19,16.90
2014,09,22,05,20,16.90
2014,09,22,05,21,16.90
2014,09,22,05,22,17.00
2014,09,22,05,23,16.90
2014,09,22,05,24,16.90
2014,09,22,05,25,16.90
2014,09,22,05,26,16.80
2014,09,22,05,27,16.80
2014,09,22,05,28,16.80
2014,09,22,05,29,16.70
2014,09,22,05,30,16.60
2014,09,22,05,31,16.60
2014,09,22,05,32,16.60
2014,09,22,05,33,16.60
2014,09,22,05,34,16.50
2014,09,22,05,35,16.50
2014,09,22,05,36,16.40
2014,09,22,05,37,16.40
2014,09,22,05,38,16.40
2014,09,22,05,39,16.30
2014,09,22,05,40,16.30
2014,09,22,05,41,16.30
2014,09,22,05,42,16.30
2014,09,22,05,43,16.30
2014,09,22,05,44,16.30
2014,09,22,05,45,16.30
2014,09,22,05,46,16.20
2014,09,22,05,47,16.20
2014,09,22,05,48,16.20
2014,09,22,05,49,16.20
2014,09,22,05,50,16.20
2014,09,22,05,51,16.20
2014,09,22,05,52,16.20
2014,09,22,05,53,16.10
2014,09,22,05,54,16.10
2014,09,22,05,55,16.10
2014,09,22,05,56,16.10
2014,09,22,05,57,16.10
2014,09,22,05,58,16.00
2014,09,22,05,59,16.00
2014,09,22,06,00,15.90
2014,09,22,06,01,15.90
2014,09,22,06,02,15.90
2014,09,22,06,03,15.90
2014,09,22,06,04,15.80
2014,09,22,06,05,15.80
2014,09,22,06,06,15.80
2014,09,22,06,07,15.70
2014,09,22,06,08,15.70
2014,09,22,06,09,15.70
2014,09,22,06,10,15.70
2014,09,22,06,11,15.60
2014,09,22,06,12,15.60
2014,09,22,06,13,15.60
2014,09,22,06,14,15.50
2014,09,22,06,15,15.50
2014,09,22,06,16,15.40
2014,09,22,06,17,15.40
2014,09,22,06,18,15.40
2014,09,22,06,19,15.40
2014,09,22,06,20,15.40
2014,09,22,06,21,15.30
2014,09,22,06,22,15.30
2014,09,22,06,23,15.30
2014,09,22,06,24,15.30
2014,09,22,06,25,15.30
2014,09,22,06,26,15.30
2014,09,22,06,27,15.30
2014,09,22,06,28,15.20
2014,09,22,06,29,15.20
2014,09,22,06,30,15.20
2014,09,22,06,31,15.30
2014,09,22,06,32,15.30
2014,09,22,06,33,15.30
2014,09,22,06,34,15.30
2014,09,22,06,35,15.30
2014,09,22,06,36,15.30
2014,09,22,06,37,15.30
2014,09,22,06,38,15.30
2014,09,22,06,39,15.30
2014,09,22,06,40,15.30
2014,09,22,06,41,15.20
2014,09,22,06,42,15.20
2014,09,22,06,43,15.20
2014,09,22,06,44,15.20
2014,09,22,06,45,15.20
2014,09,22,06,46,15.20
2014,09,22,06,47,15.20
2014,09,22,06,48,15.10
2014,09,22,06,49,15.10
2014,09,22,06,50,15.10
2014,09,22,06,51,15.10
2014,09,22,06,52,15.10
2014,09,22,06,53,15.10
2014,09,22,06,54,15.10
2014,09,22,06,55,15.20
2014,09,22,06,56,15.20
2014,09,22,06,57,15.20
2014,09,22,06,58,15.30
2014,09,22,06,59,15.30
2014,09,22,07,00,15.40
2014,09,22,07,01,15.40
2014,09,22,07,02,15.50
2014,09,22,07,03,15.60
2014,09,22,07,04,15.70
2014,09,22,07,05,15.80
2014,09,22,07,06,15.90
2014,09,22,07,07,15.90
2014,09,22,07,08,15.90
2014,09,22,07,09,15.90
2014,09,22,07,10,15.90
2014,09,22,07,11,15.90
2014,09,22,07,12,15.90
2014,09,22,07,13,15.80
2014,09,22,07,14,15.80
2014,09,22,07,15,15.80
2014,09,22,07,16,15.80
2014,09,22,07,17,15.70
2014,09,22,07,18,15.70
2014,09,22,07,19,15.70
2014,09,22,07,20,15.70
2014,09,22,07,21,15.70
2014,09,22,07,22,15.70
2014,09,22,07,23,15.70
2014,09,22,07,24,15.60
2014,09,22,07,25,15.60
2014,09,22,07,26,15.60
2014,09,22,07,27,15.60
2014,09,22,07,28,15.60
2014,09,22,07,29,15.60
2014,09,22,07,30,15.60
2014,09,22,07,31,15.60
2014,09,22,07,32,15.70
2014,09,22,07,33,15.70
2014,09,22,07,34,15.70
2014,09,22,07,35,15.80
2014,09,22,07,36,15.80
2014,09,22,07,37,15.80
2014,09,22,07,38,15.80
2014,09,22,07,39,15.80
2014,09,22,07,40,15.80
2014,09,22,07,41,15.80
2014,09,22,07,42,15.80
2014,09,22,07,43,15.80
2014,09,22,07,44,15.80
2014,09,22,07,45,15.80
2014,09,22,07,46,15.80
2014,09,22,07,47,15.80
2014,09,22,07,48,15.80
2014,09,22,07,49,15.80
2014,09,22,07,50,15.80
2014,09,22,07,51,15.80
2014,09,22,07,52,15.80
2014,09,22,07,53,15.80
2014,09,22,07,54,15.80
2014,09,22,07,55,15.70
2014,09,22,07,56,15.60
2014,09,22,07,57,15.60
2014,09,22,07,58,15.60
2014,09,22,07,59,15.50
2014,09,22,08,00,15.40
2014,09,22,08,01,15.40
2014,09,22,08,02,15.30
2014,09,22,08,03,15.30
2014,09,22,08,04,15.30
2014,09,22,08,05,15.30
2014,09,22,08,06,15.30
2014,09,22,08,07,15.20
2014,09,22,08,08,15.20
2014,09,22,08,09,15.20
2014,09,22,08,10,15.20
2014,09,22,08,11,15.20
2014,09,22,08,12,15.20
2014,09,22,08,13,15.20
2014,09,22,08,14,15.10
2014,09,22,08,15,15.10
2014,09,22,08,16,15.10
2014,09,22,08,17,15.10
2014,09,22,08,18,15.10
2014,09,22,08,19,15.10
2014,09,22,08,20,15.10
2014,09,22,08,21,15.10
2014,09,22,08,22,15.10
2014,09,22,08,23,15.20
2014,09,22,08,24,15.20
2014,09,22,08,25,15.20
2014,09,22,08,26,15.20
2014,09,22,08,27,15.20
2014,09,22,08,28,15.20
2014,09,22,08,29,15.30
2014,09,22,08,30,15.30
2014,09,22,08,31,15.40
2014,09,22,08,32,15.40
2014,09,22,08,33,15.40
2014,09,22,08,34,15.50
2014,09,22,08,35,15.50
2014,09,22,08,36,15.60
2014,09,22,08,37,15.60
2014,09,22,08,38,15.60
2014,09,22,08,39,15.70
2014,09,22,08,40,15.70
2014,09,22,08,41,15.70
2014,09,22,08,42,15.80
2014,09,22,08,43,15.80
2014,09,22,08,44,15.90
2014,09,22,08,45,16.00
2014,09,22,08,46,16.00
2014,09,22,08,47,16.10
2014,09,22,08,48,16.30
2014,09,22,08,49,16.40
2014,09,22,08,50,16.60
2014,09,22,08,51,16.70
2014,09,22,08,52,16.90
2014,09,22,08,53,17.10
2014,09,22,08,54,17.20
2014,09,22,08,55,17.40
2014,09,22,08,56,17.50
2014,09,22,08,57,17.60
2014,09,22,08,58,17.60
2014,09,22,08,59,17.70
2014,09,22,09,00,17.70
2014,09,22,09,01,17.70
2014,09,22,09,02,17.70
2014,09,22,09,03,17.70
2014,09,22,09,04,17.80
2014,09,22,09,05,17.80
2014,09,22,09,06,17.80
2014,09,22,09,07,17.80
2014,09,22,09,08,17.80
2014,09,22,09,09,17.80
2014,09,22,09,10,17.80
2014,09,22,09,11,17.80
2014,09,22,09,12,17.80
2014,09,22,09,13,17.80
2014,09,22,09,14,17.80
2014,09,22,09,15,17.80
2014,09,22,09,16,17.80
2014,09,22,09,17,17.80
2014,09,22,09,18,17.80
2014,09,22,09,19,17.80
2014,09,22,09,20,17.90
2014,09,22,09,21,17.90
2014,09,22,09,22,17.90
2014,09,22,09,23,18.00
2014,09,22,09,24,18.00
2014,09,22,09,25,18.10
2014,09,22,09,26,18.20
2014,09,22,09,27,18.20
2014,09,22,09,28,18.30
2014,09,22,09,29,18.30
2014,09,22,09,30,18.40
2014,09,22,09,31,18.50
2014,09,22,09,32,18.50
2014,09,22,09,33,18.60
2014,09,22,09,34,18.60
2014,09,22,09,35,18.70
2014,09,22,09,36,18.70
2014,09,22,09,37,18.70
2014,09,22,09,38,18.70
2014,09,22,09,39,18.70
2014,09,22,09,40,18.70
2014,09,22,09,41,18.80
2014,09,22,09,42,18.80
2014,09,22,09,43,18.80
2014,09,22,09,44,18.80
2014,09,22,09,45,18.80
2014,09,22,09,46,18.70
2014,09,22,09,47,18.70
2014,09,22,09,48,18.70
2014,09,22,09,49,18.70
2014,09,22,09,50,18.70
2014,09,22,09,51,18.70
2014,09,22,09,52,18.60
2014,09,22,09,53,18.60
2014,09,22,09,54,18.60
2014,09,22,09,55,18.60
2014,09,22,09,56,18.60
2014,09,22,09,57,18.50
2014,09,22,09,58,18.50
2014,09,22,09,59,18.50
2014,09,22,10,00,18.50
2014,09,22,10,01,18.40
2014,09,22,10,02,18.40
2014,09,22,10,03,18.40
2014,09,22,10,04,18.40
2014,09,22,10,05,18.40
2014,09,22,10,06,18.40
2014,09,22,10,07,18.40
2014,09,22,10,08,18.40
2014,09,22,10,09,18.40
2014,09,22,10,10,18.40
2014,09,22,10,11,18.40
2014,09,22,10,12,18.40
2014,09,22,10,13,18.40
2014,09,22,10,14,18.40
2014,09,22,10,15,18.40
2014,09,22,10,16,18.40
2014,09,22,10,17,18.40
2014,09,22,10,18,18.40
2014,09,22,10,19,18.40
2014,09,22,10,20,18.40
2014,09,22,10,21,18.40
2014,09,22,10,22,18.40
2014,09,22,10,23,18.50
2014,09,22,10,24,18.40
2014,09,22,10,25,18.40
2014,09,22,10,26,18.40
2014,09,22,10,27,18.40
2014,09,22,10,28,18.40
2014,09,22,10,29,18.40
2014,09,22,10,30,18.30
2014,09,22,10,31,18.40
2014,09,22,10,32,18.40
2014,09,22,10,33,18.30
2014,09,22,10,34,18.30
2014,09,22,10,35,18.30
2014,09,22,10,36,18.30
2014,09,22,10,37,18.30
2014,09,22,10,38,18.30
2014,09,22,10,39,18.30
2014,09,22,10,40,18.30
2014,09,22,10,41,18.30
2014,09,22,10,42,18.30
2014,09,22,10,43,18.30
2014,09,22,10,44,18.30
2014,09,22,10,45,18.30
2014,09,22,10,46,18.30
2014,09,22,10,47,18.30
2014,09,22,10,48,18.40
2014,09,22,10,49,18.40
2014,09,22,10,50,18.40
2014,09,22,10,51,18.40
2014,09,22,10,52,18.40
2014,09,22,10,53,18.40
2014,09,22,10,54,18.40
2014,09,22,10,55,18.40
2014,09,22,10,56,18.40
2014,09,22,10,57,18.40
2014,09,22,10,58,18.30
2014,09,22,10,59,18.30
2014,09,22,11,00,18.30
2014,09,22,11,01,18.30
2014,09,22,11,02,18.30
2014,09,22,11,03,18.30
2014,09,22,11,04,18.30
2014,09,22,11,05,18.30
2014,09,22,11,06,18.30
2014,09,22,11,07,18.30
2014,09,22,11,08,18.30
2014,09,22,11,09,18.30
2014,09,22,11,10,18.30
2014,09,22,11,11,18.30
2014,09,22,11,12,18.30
2014,09,22,11,13,18.30
2014,09,22,11,14,18.30
2014,09,22,11,15,18.30
2014,09,22,11,16,18.40
2014,09,22,11,17,18.40
2014,09,22,11,18,18.40
2014,09,22,11,19,18.40
2014,09,22,11,20,18.40
2014,09,22,11,21,18.40
2014,09,22,11,22,18.50
2014,09,22,11,23,18.50
2014,09,22,11,24,18.60
2014,09,22,11,25,18.60
2014,09,22,11,26,18.70
2014,09,22,11,27,18.70
2014,09,22,11,28,18.70
2014,09,22,11,29,18.80
2014,09,22,11,30,18.80
2014,09,22,11,31,18.80
2014,09,22,11,32,18.80
2014,09,22,11,33,18.80
2014,09,22,11,34,18.80
2014,09,22,11,35,18.80
2014,09,22,11,36,18.70
2014,09,22,11,37,18.60
2014,09,22,11,38,18.60
2014,09,22,11,39,18.60
2014,09,22,11,40,18.50
2014,09,22,11,41,18.40
2014,09,22,11,42,18.40
2014,09,22,11,43,18.30
2014,09,22,11,44,18.30
2014,09,22,11,45,18.30
2014,09,22,11,46,18.30
2014,09,22,11,47,18.30
2014,09,22,11,48,18.30
2014,09,22,11,49,18.40
2014,09,22,11,50,18.50
2014,09,22,11,51,18.60
2014,09,22,11,52,18.80
2014,09,22,11,53,18.90
2014,09,22,11,54,19.10
2014,09,22,11,55,19.20
2014,09,22,11,56,19.20
2014,09,22,11,57,19.20
2014,09,22,11,58,19.20
2014,09,22,11,59,19.20
2014,09,22,12,00,19.20
2014,09,22,12,01,19.30
2014,09,22,12,02,19.40
2014,09,22,12,03,19.60
2014,09,22,12,04,19.80
2014,09,22,12,05,19.90
2014,09,22,12,06,20.00
2014,09,22,12,07,20.10
2014,09,22,12,08,20.10
2014,09,22,12,09,20.00
2014,09,22,12,10,20.00
2014,09,22,12,11,19.90
2014,09,22,12,12,19.90
2014,09,22,12,13,19.80
2014,09,22,12,14,19.70
2014,09,22,12,15,19.60
2014,09,22,12,16,19.40
2014,09,22,12,17,19.20
2014,09,22,12,18,19.10
2014,09,22,12,19,18.90
2014,09,22,12,20,18.80
2014,09,22,12,21,18.60
2014,09,22,12,22,18.40
2014,09,22,12,23,18.30
2014,09,22,12,24,18.20
2014,09,22,12,25,18.10
2014,09,22,12,26,18.00
2014,09,22,12,27,18.00
2014,09,22,12,28,17.90
2014,09,22,12,29,17.80
2014,09,22,12,30,17.80
2014,09,22,12,31,17.80
2014,09,22,12,32,17.80
2014,09,22,12,33,17.90
2014,09,22,12,34,18.00
2014,09,22,12,35,18.10
2014,09,22,12,36,18.20
2014,09,22,12,37,18.20
2014,09,22,12,38,18.20
2014,09,22,12,39,18.20
2014,09,22,12,40,18.10
2014,09,22,12,41,18.00
2014,09,22,12,42,17.90
2014,09,22,12,43,17.90
2014,09,22,12,44,17.80
2014,09,22,12,45,17.80
2014,09,22,12,46,17.80
2014,09,22,12,47,17.70
2014,09,22,12,48,17.70
2014,09,22,12,49,17.70
2014,09,22,12,50,17.70
2014,09,22,12,51,17.70
2014,09,22,12,52,17.70
2014,09,22,12,53,17.70
2014,09,22,12,54,17.70
2014,09,22,12,55,17.80
2014,09,22,12,56,17.80
2014,09,22,12,57,17.80
2014,09,22,12,58,17.80
2014,09,22,12,59,17.80
2014,09,22,13,00,17.80
2014,09,22,13,01,17.80
2014,09,22,13,02,17.90
2014,09,22,13,03,17.90
2014,09,22,13,04,17.90
2014,09,22,13,05,17.90
2014,09,22,13,06,17.90
2014,09,22,13,07,17.90
2014,09,22,13,08,17.90
2014,09,22,13,09,17.80
2014,09,22,13,10,17.80
2014,09,22,13,11,17.80
2014,09,22,13,12,17.90
2014,09,22,13,13,17.90
2014,09,22,13,14,17.90
2014,09,22,13,15,17.90
2014,09,22,13,16,18.00
2014,09,22,13,17,18.10
2014,09,22,13,18,18.20
2014,09,22,13,19,18.30
2014,09,22,13,20,18.40
2014,09,22,13,21,18.50
2014,09,22,13,22,18.70
2014,09,22,13,23,18.80
2014,09,22,13,24,18.90
2014,09,22,13,25,19.10
2014,09,22,13,26,19.20
2014,09,22,13,27,19.20
2014,09,22,13,28,19.10
2014,09,22,13,29,19.10
2014,09,22,13,30,19.10
2014,09,22,13,31,19.20
2014,09,22,13,32,19.10
2014,09,22,13,33,19.10
2014,09,22,13,34,19.00
2014,09,22,13,35,19.00
2014,09,22,13,36,18.90
2014,09,22,13,37,18.80
2014,09,22,13,38,18.70
2014,09,22,13,39,18.60
2014,09,22,13,40,18.60
2014,09,22,13,41,18.60
2014,09,22,13,42,18.60
2014,09,22,13,43,18.60
2014,09,22,13,44,18.60
2014,09,22,13,45,18.50
2014,09,22,13,46,18.50
2014,09,22,13,47,18.50
2014,09,22,13,48,18.40
2014,09,22,13,49,18.40
2014,09,22,13,50,18.30
2014,09,22,13,51,18.20
2014,09,22,13,52,18.20
2014,09,22,13,53,18.20
2014,09,22,13,54,18.10
2014,09,22,13,55,18.10
2014,09,22,13,56,18.20
2014,09,22,13,57,18.20
2014,09,22,13,58,18.10
2014,09,22,13,59,18.10
2014,09,22,14,00,18.10
2014,09,22,14,01,18.00
2014,09,22,14,02,17.90
2014,09,22,14,03,17.90
2014,09,22,14,04,17.80
2014,09,22,14,05,17.80
2014,09,22,14,06,17.80
2014,09,22,14,07,17.70
2014,09,22,14,08,17.70
2014,09,22,14,09,17.70
2014,09,22,14,10,17.60
2014,09,22,14,11,17.60
2014,09,22,14,12,17.60
2014,09,22,14,13,17.60
2014,09,22,14,14,17.50
2014,09,22,14,15,17.50
2014,09,22,14,16,17.50
2014,09,22,14,17,17.50
2014,09,22,14,18,17.50
2014,09,22,14,19,17.50
2014,09,22,14,20,17.60
2014,09,22,14,21,17.60
2014,09,22,14,22,17.60
2014,09,22,14,23,17.70
2014,09,22,14,24,17.80
2014,09,22,14,25,17.90
2014,09,22,14,26,17.90
2014,09,22,14,27,17.90
2014,09,22,14,28,18.00
2014,09,22,14,29,18.00
2014,09,22,14,30,18.00
2014,09,22,14,31,17.90
2014,09,22,14,32,17.90
2014,09,22,14,33,17.80
2014,09,22,14,34,17.80
2014,09,22,14,35,17.70
2014,09,22,14,36,17.60
2014,09,22,14,37,17.60
2014,09,22,14,38,17.50
2014,09,22,14,39,17.40
2014,09,22,14,40,17.40
2014,09,22,14,41,17.30
2014,09,22,14,42,17.30
2014,09,22,14,43,17.20
2014,09,22,14,44,17.20
2014,09,22,14,45,17.10
2014,09,22,14,46,17.10
2014,09,22,14,47,17.10
2014,09,22,14,48,17.10
2014,09,22,14,49,17.00
2014,09,22,14,50,17.00
2014,09,22,14,51,17.00
2014,09,22,14,52,17.00
2014,09,22,14,53,17.00
2014,09,22,14,54,16.90
2014,09,22,14,55,16.90
2014,09,22,14,56,16.90
2014,09,22,14,57,16.80
2014,09,22,14,58,16.80
2014,09,22,14,59,16.80
2014,09,22,15,00,16.80
2014,09,22,15,01,16.70
2014,09,22,15,02,16.70
2014,09,22,15,03,16.60
2014,09,22,15,04,16.60
2014,09,22,15,05,16.60
2014,09,22,15,06,16.60
2014,09,22,15,07,16.60
2014,09,22,15,08,16.60
2014,09,22,15,09,16.60
2014,09,22,15,10,16.60
2014,09,22,15,11,16.60
2014,09,22,15,12,16.60
2014,09,22,15,13,16.60
2014,09,22,15,14,16.60
2014,09,22,15,15,16.60
2014,09,22,15,16,16.60
2014,09,22,15,17,16.60
2014,09,22,15,18,16.60
2014,09,22,15,19,16.60
2014,09,22,15,20,16.60
2014,09,22,15,21,16.60
2014,09,22,15,22,16.60
2014,09,22,15,23,16.60
2014,09,22,15,24,16.60
2014,09,22,15,25,16.60
2014,09,22,15,26,16.60
2014,09,22,15,27,16.50
2014,09,22,15,28,16.60
2014,09,22,15,29,16.50
2014,09,22,15,30,16.50
2014,09,22,15,31,16.50
2014,09,22,15,32,16.50
2014,09,22,15,33,16.50
2014,09,22,15,34,16.50
2014,09,22,15,35,16.50
2014,09,22,15,36,16.50
2014,09,22,15,37,16.50
2014,09,22,15,38,16.50
2014,09,22,15,39,16.50
2014,09,22,15,40,16.50
2014,09,22,15,41,16.50
2014,09,22,15,42,16.60
2014,09,22,15,43,16.60
2014,09,22,15,44,16.60
2014,09,22,15,45,16.60
2014,09,22,15,46,16.60
2014,09,22,15,47,16.60
2014,09,22,15,48,16.60
2014,09,22,15,49,16.70
2014,09,22,15,50,16.70
2014,09,22,15,51,16.70
2014,09,22,15,52,16.70
2014,09,22,15,53,16.80
2014,09,22,15,54,16.80
2014,09,22,15,55,16.80
2014,09,22,15,56,16.80
2014,09,22,15,57,16.80
2014,09,22,15,58,16.80
2014,09,22,15,59,16.80
2014,09,22,16,00,16.80
2014,09,22,16,01,16.80
2014,09,22,16,02,16.80
2014,09,22,16,03,16.80
2014,09,22,16,04,16.80
2014,09,22,16,05,16.80
2014,09,22,16,06,16.80
2014,09,22,16,07,16.80
2014,09,22,16,08,16.80
2014,09,22,16,09,16.80
2014,09,22,16,10,16.80
2014,09,22,16,11,16.80
2014,09,22,16,12,16.80
2014,09,22,16,13,16.70
2014,09,22,16,14,16.70
2014,09,22,16,15,16.70
2014,09,22,16,16,16.70
2014,09,22,16,17,16.70
2014,09,22,16,18,16.70
2014,09,22,16,19,16.60
2014,09,22,16,20,16.60
2014,09,22,16,21,16.50
2014,09,22,16,22,16.50
2014,09,22,16,23,16.50
2014,09,22,16,24,16.40
2014,09,22,16,25,16.40
2014,09,22,16,26,16.40
2014,09,22,16,27,16.30
2014,09,22,16,28,16.30
2014,09,22,16,29,16.30
2014,09,22,16,30,16.20
2014,09,22,16,31,16.20
2014,09,22,16,32,16.20
2014,09,22,16,33,16.20
2014,09,22,16,34,16.20
2014,09,22,16,35,16.20
2014,09,22,16,36,16.20
2014,09,22,16,37,16.20
2014,09,22,16,38,16.10
2014,09,22,16,39,16.10
2014,09,22,16,40,16.10
2014,09,22,16,41,16.20
2014,09,22,16,42,16.20
2014,09,22,16,43,16.20
2014,09,22,16,44,16.20
2014,09,22,16,45,16.20
2014,09,22,16,46,16.20
2014,09,22,16,47,16.20
2014,09,22,16,48,16.20
2014,09,22,16,49,16.20
2014,09,22,16,50,16.20
2014,09,22,16,51,16.30
2014,09,22,16,52,16.30
2014,09,22,16,53,16.30
2014,09,22,16,54,16.30
2014,09,22,16,55,16.30
2014,09,22,16,56,16.30
2014,09,22,16,57,16.30
2014,09,22,16,58,16.40
2014,09,22,16,59,16.40
2014,09,22,17,00,16.40
2014,09,22,17,01,16.40
2014,09,22,17,02,16.40
2014,09,22,17,03,16.40
2014,09,22,17,04,16.40
2014,09,22,17,05,16.30
2014,09,22,17,06,16.30
2014,09,22,17,07,16.30
2014,09,22,17,08,16.30
2014,09,22,17,09,16.40
2014,09,22,17,10,16.40
2014,09,22,17,11,16.40
2014,09,22,17,12,16.40
2014,09,22,17,13,16.40
2014,09,22,17,14,16.50
2014,09,22,17,15,16.50
2014,09,22,17,16,16.50
2014,09,22,17,17,16.50
2014,09,22,17,18,16.50
2014,09,22,17,19,16.50